When you browse on this site, cookies collect data to enhance your experience and personalize the content and advertising you see.
Visit our Privacy Policy to learn more. By continuing to use the site, you agree to this use of cookies and data.
  • In Latvia
  • List of Countries
  • For 7 days
  • Water Temperature
  • Satellite Maps
  • Weather Map
  • Weather Widgets
  • user-avatar
    Login

    Hourly Weather Volnovaha

    Today, 13 December, Thursday

    Time Temperature Precipitation Wind Pressure Humidity
    00:00 -2°C° 0 mm 4 mps 735 mmHg 85%
    01:00 -2°C° 0 mm 4 mps 735 mmHg 86%
    02:00 -2°C° 0 mm 3 mps 735 mmHg 88%
    03:00 -2°C° 0 mm 3 mps 736 mmHg 87%
    04:00 -3°C° 0 mm 4 mps 736 mmHg 86%
    05:00 -2°C° 0 mm 4 mps 736 mmHg 85%
    06:00 -2°C° 0 mm 3 mps 737 mmHg 85%
    07:00 -2°C° 0 mm 3 mps 737 mmHg 85%
    08:00 -2°C° 0 mm 3 mps 738 mmHg 85%
    09:00 -1°C° 0 mm 3 mps 738 mmHg 82%
    10:00 -1°C° 0 mm 4 mps 738 mmHg 78%
    11:00 0°C° 0 mm 4 mps 739 mmHg 75%
    12:00 0°C° 0 mm 4 mps 739 mmHg 74%
    13:00 0°C° 0 mm 4 mps 739 mmHg 73%
    14:00 +2°C° 0 mm 3 mps 739 mmHg 72%
    15:00 +1°C° 0 mm 3 mps 740 mmHg 75%
    16:00 +1°C° 0 mm 3 mps 740 mmHg 77%
    17:00 +1°C° 0 mm 2 mps 740 mmHg 79%
    18:00 +1°C° 0 mm 2 mps 740 mmHg 81%
    19:00 -1°C° 0 mm 2 mps 741 mmHg 82%
    20:00 -1°C° 0 mm 2 mps 741 mmHg 84%
    21:00 -1°C° 0 mm 2 mps 741 mmHg 84%
    22:00 -1°C° 0 mm 2 mps 741 mmHg 85%
    23:00 -1°C° 0 mm 2 mps 741 mmHg 86%

    Tomorrow, 14 December, Friday

    Time Temperature Precipitation Wind Pressure Humidity
    00:00 -1°C° 0 mm 2 mps 741 mmHg 87%
    01:00 -1°C° 0 mm 2 mps 741 mmHg 88%
    02:00 -1°C° 0 mm 3 mps 741 mmHg 89%
    03:00 -1°C° 0 mm 2 mps 742 mmHg 90%
    04:00 -2°C° 0 mm 2 mps 742 mmHg 90%
    05:00 -2°C° 0 mm 2 mps 742 mmHg 91%
    06:00 -2°C° 0 mm 2 mps 742 mmHg 90%
    07:00 0°C° 0 mm 1 mps 742 mmHg 90%
    08:00 0°C° 0 mm 1 mps 742 mmHg 90%
    09:00 +1°C° 0 mm 1 mps 743 mmHg 85%
    10:00 +3°C° 0 mm 1 mps 743 mmHg 80%
    11:00 +4°C° 0 mm 1 mps 743 mmHg 75%
    12:00 +4°C° 0 mm 1 mps 743 mmHg 75%
    13:00 +4°C° 0 mm 1 mps 743 mmHg 75%
    14:00 +4°C° 0 mm 1 mps 744 mmHg 74%
    15:00 +3°C° 0 mm 1 mps 744 mmHg 77%
    16:00 +2°C° 0 mm 1 mps 744 mmHg 80%
    17:00 0°C° 0 mm 0 mps 744 mmHg 82%
    18:00 +1°C° 0 mm 1 mps 744 mmHg 83%
    19:00 +1°C° 0 mm 1 mps 744 mmHg 84%
    20:00 +1°C° 0 mm 1 mps 745 mmHg 85%
    21:00 +1°C° 0 mm 1 mps 745 mmHg 85%
    22:00 +1°C° 0 mm 1 mps 745 mmHg 85%
    23:00 +1°C° 0 mm 1 mps 745 mmHg 85%

    Day after tomorrow, 15 December, Saturday

    Time Temperature Precipitation Wind Pressure Humidity
    00:00 +1°C° 0 mm 1 mps 745 mmHg 85%
    01:00 -1°C° 0 mm 0 mps 746 mmHg 85%
    02:00 -1°C° 0 mm 0 mps 746 mmHg 85%
    03:00 -1°C° 0 mm 0 mps 746 mmHg 86%
    04:00 -1°C° 0 mm 0 mps 746 mmHg 86%
    05:00 -1°C° 0 mm 0 mps 746 mmHg 86%
    06:00 -1°C° 0 mm 0 mps 746 mmHg 85%
    07:00 -1°C° 0 mm 0 mps 746 mmHg 85%
    08:00 -1°C° 0 mm 0 mps 747 mmHg 84%
    09:00 0°C° 0 mm 0 mps 747 mmHg 80%
    10:00 +2°C° 0 mm 1 mps 747 mmHg 76%
    11:00 +3°C° 0 mm 1 mps 747 mmHg 71%
    12:00 +3°C° 0 mm 1 mps 747 mmHg 72%
    13:00 +3°C° 0 mm 1 mps 747 mmHg 73%
    14:00 +3°C° 0 mm 1 mps 747 mmHg 74%
    15:00 +2°C° 0 mm 1 mps 748 mmHg 77%
    16:00 +2°C° 0 mm 1 mps 748 mmHg 81%
    17:00 -1°C° 0 mm 2 mps 748 mmHg 85%
    18:00 -2°C° 0 mm 2 mps 748 mmHg 86%
    19:00 -2°C° 0 mm 2 mps 748 mmHg 87%
    20:00 -2°C° 0 mm 3 mps 748 mmHg 87%
    21:00 -2°C° 0 mm 3 mps 748 mmHg 88%
    22:00 -4°C° 0 mm 3 mps 748 mmHg 89%
    23:00 -4°C° 0 mm 3 mps 748 mmHg 89%

    16 December, Sunday

    Time Temperature Precipitation Wind Pressure Humidity
    00:00 -4°C° 0 mm 3 mps 748 mmHg 89%
    01:00 -4°C° 0 mm 4 mps 749 mmHg 88%
    02:00 -4°C° 0 mm 4 mps 749 mmHg 88%
    03:00 -4°C° 0 mm 4 mps 749 mmHg 87%
    04:00 -5°C° 0 mm 4 mps 748 mmHg 86%
    05:00 -5°C° 0 mm 4 mps 748 mmHg 84%
    06:00 -5°C° 0 mm 4 mps 748 mmHg 84%
    07:00 -6°C° 0 mm 5 mps 748 mmHg 84%
    08:00 -6°C° 0 mm 5 mps 748 mmHg 84%
    09:00 -5°C° 0 mm 5 mps 748 mmHg 81%
    10:00 -5°C° 0 mm 6 mps 748 mmHg 79%
    11:00 -4°C° 0 mm 6 mps 748 mmHg 76%
    12:00 -4°C° 0 mm 6 mps 748 mmHg 76%
    13:00 -4°C° 0 mm 6 mps 747 mmHg 76%
    14:00 -4°C° 0 mm 6 mps 747 mmHg 76%
    15:00 -5°C° 0 mm 6 mps 747 mmHg 78%
    16:00 -5°C° 0 mm 6 mps 747 mmHg 79%
    17:00 -5°C° 0 mm 6 mps 747 mmHg 81%
    18:00 -7°C° 0 mm 7 mps 747 mmHg 81%
    19:00 -7°C° 0 mm 7 mps 747 mmHg 82%
    20:00 -7°C° 0 mm 7 mps 747 mmHg 82%
    21:00 -7°C° 0 mm 7 mps 747 mmHg 82%
    22:00 -7°C° 0 mm 7 mps 746 mmHg 82%
    23:00 -7°C° 0 mm 7 mps 746 mmHg 83%

    17 December, Monday

    Time Temperature Precipitation Wind Pressure Humidity
    00:00 -7°C° 0 mm 7 mps 746 mmHg 82%
    01:00 -7°C° 0 mm 7 mps 746 mmHg 82%
    02:00 -8°C° 0 mm 7 mps 746 mmHg 81%
    03:00 -8°C° 0 mm 7 mps 746 mmHg 80%
    04:00 -8°C° 0 mm 7 mps 745 mmHg 78%
    05:00 -8°C° 0 mm 7 mps 745 mmHg 76%
    06:00 -8°C° 0 mm 7 mps 745 mmHg 73%
    07:00 -8°C° 0 mm 7 mps 745 mmHg 71%
    08:00 -8°C° 0 mm 7 mps 745 mmHg 68%
    09:00 -7°C° 0 mm 8 mps 745 mmHg 65%
    10:00 -7°C° 0 mm 8 mps 745 mmHg 62%
    11:00 -6°C° 0 mm 8 mps 745 mmHg 59%
    12:00 -6°C° 0 mm 8 mps 745 mmHg 59%
    13:00 -6°C° 0 mm 8 mps 745 mmHg 58%
    14:00 -6°C° 0 mm 7 mps 744 mmHg 58%
    15:00 -7°C° 0 mm 7 mps 744 mmHg 59%
    16:00 -7°C° 0 mm 7 mps 745 mmHg 61%
    17:00 -8°C° 0 mm 7 mps 745 mmHg 62%
    18:00 -8°C° 0 mm 7 mps 745 mmHg 64%
    19:00 -8°C° 0 mm 7 mps 745 mmHg 65%
    20:00 -8°C° 0 mm 7 mps 745 mmHg 67%
    21:00 -9°C° 0 mm 7 mps 745 mmHg 69%
    22:00 -9°C° 0 mm 7 mps 745 mmHg 71%
    23:00 -9°C° 0 mm 7 mps 745 mmHg 73%

    18 December, Tuesday

    Time Temperature Precipitation Wind Pressure Humidity
    00:00 -9°C° 0 mm 7 mps 745 mmHg 74%
    01:00 -9°C° 0 mm 7 mps 745 mmHg 75%
    02:00 -9°C° 0 mm 7 mps 745 mmHg 76%
    03:00 -9°C° 0 mm 7 mps 745 mmHg 77%
    04:00 -9°C° 0 mm 7 mps 745 mmHg 78%
    05:00 -9°C° 0 mm 7 mps 745 mmHg 79%
    06:00 -9°C° 0 mm 7 mps 745 mmHg 79%
    07:00 -9°C° 0 mm 7 mps 745 mmHg 79%
    08:00 -9°C° 0 mm 7 mps 745 mmHg 79%
    09:00 -8°C° 0 mm 7 mps 745 mmHg 78%
    10:00 -8°C° 0 mm 7 mps 745 mmHg 77%
    11:00 -8°C° 0 mm 7 mps 745 mmHg 76%
    12:00 -8°C° 0 mm 7 mps 745 mmHg 76%
    13:00 -7°C° 0 mm 7 mps 745 mmHg 76%
    14:00 -7°C° 0 mm 7 mps 744 mmHg 76%
    15:00 -7°C° 0 mm 7 mps 745 mmHg 77%
    16:00 -7°C° 0 mm 7 mps 745 mmHg 78%
    17:00 -6°C° 0 mm 6 mps 745 mmHg 79%
    18:00 -6°C° 0 mm 6 mps 745 mmHg 80%
    19:00 -6°C° 0 mm 6 mps 745 mmHg 80%
    20:00 -7°C° 0 mm 7 mps 745 mmHg 81%
    21:00 -6°C° 0 mm 6 mps 745 mmHg 81%
    22:00 -6°C° 0 mm 6 mps 744 mmHg 82%
    23:00 -6°C° 0 mm 6 mps 744 mmHg 82%
    Show more